Theta_e
316 317 319 321 318 315 315 314 314 315 314 316 318 317 317 316 315 314 315 317 317 317 317 317 315 314 314 313 313 312 312 313 313 312 312 312 312 313 313 313 313 312 313 311 309 309 310 309 308 308 308 307 306 306 305 303 302 301 300 299 298 299 298 298 298 298 297 297 297 296 296 296 295 295 295 295 295 294 294 293 293 292 291 291 291 291
316 317 318 318 316 315 316 316 314 314 314 315 316 316 316 316 316 315 316 317 316 316 315 316 315 314 314 313 313 313 312 313 313 313 312 312 312 312 313 312 313 313 313 315 313 309 307 308 308 307 307 307 306 305 304 303 302 301 300 299 299 298 298 298 298 298 297 297 297 296 296 295 295 295 295 295 295 294 294 293 292 292 291 291 290 290
317 317 316 315 315 315 316 317 315 314 315 316 316 317 317 317 316 315 316 316 315 315 318 318 315 313 313 313 312 312 312 313 313 313 313 313 313 312 312 312 313 313 314 318 319 311 305 306 306 306 305 306 306 304 303 302 301 300 299 299 299 298 298 298 298 298 297 297 296 296 296 295 295 295 295 295 294 294 293 293 292 291 291 290 290 290
317 318 316 314 316 316 316 315 315 315 315 316 316 317 317 317 316 315 315 316 314 315 319 318 315 312 312 312 312 312 312 312 313 313 314 314 314 313 313 313 313 312 314 318 321 314 307 305 304 304 304 304 304 303 302 301 300 300 299 299 299 298 298 297 297 297 297 297 296 296 296 295 295 295 294 294 294 294 293 292 292 291 291 290 290 290
314 317 319 317 315 317 317 316 316 315 315 316 317 316 316 316 316 315 314 317 317 317 318 315 314 314 314 314 314 314 313 313 313 313 313 314 314 314 314 314 314 314 314 317 319 314 309 306 303 302 303 303 302 302 301 301 300 300 299 299 299 298 298 297 297 297 296 296 295 295 295 294 294 294 294 293 293 293 292 292 292 291 291 290 289 289
312 315 319 319 318 318 317 316 318 318 315 314 316 318 316 316 316 316 317 317 319 322 319 316 317 316 316 317 314 314 314 313 313 313 313 313 313 313 313 313 314 314 316 317 316 313 309 306 302 301 301 302 301 301 301 301 301 300 300 299 299 298 298 297 297 297 296 296 295 295 294 293 293 293 293 293 293 292 292 292 291 291 290 289 289 289
313 314 316 318 321 322 319 319 321 319 315 314 320 323 319 317 318 318 319 319 323 327 321 319 322 318 317 318 316 316 318 317 316 315 314 313 313 313 313 314 313 314 318 318 313 310 308 306 303 301 300 300 301 301 301 301 300 300 300 299 299 298 297 297 297 296 296 296 295 295 294 294 293 292 292 292 292 292 292 292 291 291 290 289 288 288
314 314 318 319 320 322 319 318 321 320 316 316 323 328 323 321 322 321 321 323 326 324 318 320 323 319 317 316 317 318 319 319 318 316 316 314 314 314 314 315 314 315 319 318 313 309 307 306 304 301 300 300 301 300 300 300 300 300 299 299 298 298 297 297 296 296 296 296 295 295 294 294 293 293 293 292 292 292 291 291 291 291 290 288 288 288
319 317 321 322 319 320 318 317 320 320 317 318 321 324 322 322 322 321 319 322 325 320 317 320 319 318 317 315 316 316 315 316 315 315 317 315 315 315 314 315 314 315 318 318 313 309 307 305 302 300 300 300 300 300 300 300 300 299 299 298 298 297 297 297 296 296 296 296 295 295 294 293 293 293 292 292 292 291 291 291 291 290 289 288 288 288
320 318 319 322 320 319 320 323 324 321 319 319 319 322 327 329 324 320 317 318 322 320 318 320 318 316 317 315 316 315 314 315 314 313 314 314 315 315 314 315 314 315 318 317 312 308 306 303 301 301 300 299 300 300 300 299 299 299 298 298 297 297 297 296 296 296 296 295 295 294 294 293 293 292 292 292 291 291 291 291 290 290 289 288 288 288
314 312 314 320 319 319 322 320 316 317 318 316 317 321 327 333 328 324 323 319 318 318 319 321 319 316 317 318 317 315 316 318 315 314 314 313 315 314 314 315 313 314 320 318 312 308 305 302 300 300 299 299 299 299 299 299 298 298 297 297 297 297 296 296 296 296 295 295 294 294 294 293 293 292 292 291 291 291 291 290 290 289 289 288 288 288
313 312 315 320 319 320 320 315 313 317 316 315 321 322 323 330 330 326 324 320 317 318 319 320 320 317 316 317 317 316 317 317 315 316 318 318 318 315 314 315 314 314 318 318 313 309 307 304 302 299 297 298 298 298 298 298 298 298 297 297 297 296 296 296 295 295 295 295 294 294 294 293 293 293 292 291 291 291 290 290 289 289 289 289 289 288
316 314 315 316 317 318 318 317 320 321 316 315 321 321 319 324 324 321 323 323 320 319 318 317 317 316 315 316 316 316 318 318 316 318 320 321 322 318 317 318 315 315 320 319 314 310 307 305 304 300 297 297 297 297 298 297 297 297 297 297 296 296 296 295 295 295 295 294 294 294 294 293 293 293 292 292 291 291 291 290 289 289 289 289 288 288
323 320 315 313 315 317 317 317 318 320 317 315 318 320 320 320 319 319 324 326 321 321 321 316 316 317 316 318 319 315 315 317 316 316 318 320 322 321 323 323 318 319 324 320 313 310 307 305 304 301 297 296 296 297 297 297 297 297 297 296 296 296 296 295 295 294 294 294 294 294 294 293 293 292 292 292 292 291 291 290 289 289 289 289 289 288
323 321 317 317 319 318 315 314 316 320 319 314 316 319 318 323 326 322 324 323 319 326 327 316 318 322 317 318 321 317 314 315 316 316 316 316 317 317 321 322 321 326 327 319 313 310 306 305 303 299 297 296 297 297 297 297 297 296 296 296 296 296 295 295 295 294 294 294 294 294 293 293 293 292 292 292 292 291 291 290 290 290 289 289 289 289
318 320 319 316 319 318 314 314 315 320 320 315 318 318 314 321 326 318 321 322 317 323 324 316 322 327 317 313 317 316 315 315 315 316 314 315 315 316 317 318 323 330 328 319 314 311 308 306 301 297 296 296 296 296 296 296 296 296 296 296 296 296 296 295 295 294 294 294 293 293 293 293 293 292 292 292 292 291 291 291 290 290 290 290 289 289
316 322 321 313 314 315 314 315 314 317 320 316 316 317 314 319 320 316 322 324 316 317 318 315 320 322 316 315 316 315 315 314 315 314 314 317 316 316 316 315 325 336 330 319 314 311 309 307 301 296 296 296 295 296 296 296 296 296 296 296 295 295 295 295 295 294 294 293 293 293 293 293 292 292 292 292 291 291 291 291 291 290 290 290 289 288
318 318 319 316 316 314 312 314 315 316 317 316 318 317 315 319 320 320 325 325 319 318 318 316 317 315 315 317 317 316 315 316 318 316 315 316 315 315 314 315 327 336 325 315 313 311 308 307 303 297 295 296 296 296 296 296 296 296 296 296 295 295 295 295 294 294 294 293 293 292 292 292 292 292 292 291 291 291 290 290 290 290 290 289 288 288
322 316 318 319 318 315 312 313 316 314 312 316 320 317 317 320 321 321 322 321 319 318 318 317 316 315 314 314 314 316 317 317 319 316 313 313 313 314 314 314 321 328 323 318 317 313 309 308 304 297 295 296 296 296 296 296 295 295 296 296 295 295 295 294 294 294 294 293 293 292 292 292 292 292 291 291 291 290 290 290 290 289 289 289 288 288
319 316 318 319 315 314 313 314 318 317 313 314 316 316 316 318 321 323 320 319 320 318 317 317 317 316 315 315 314 315 317 318 317 315 315 315 313 312 313 314 318 327 330 328 323 316 311 308 303 297 296 297 296 296 296 295 295 295 295 295 295 295 295 294 294 293 293 293 292 292 292 291 291 291 291 291 290 290 290 290 290 289 289 288 288 287
317 317 316 316 314 313 313 315 318 318 316 315 315 317 315 313 319 321 317 317 318 316 316 317 316 315 314 316 315 312 315 317 316 317 317 317 318 317 317 319 325 334 338 334 327 316 310 307 302 297 297 298 296 296 295 295 295 295 295 295 295 294 294 294 294 293 293 293 292 292 291 291 291 290 290 290 290 290 289 289 289 289 288 288 287 287
317 318 316 317 315 313 314 316 317 317 318 317 315 316 315 313 316 317 315 317 317 315 316 316 316 315 313 316 315 312 314 315 314 315 317 321 327 331 331 331 334 337 339 339 331 317 309 308 304 298 297 297 296 295 295 295 295 294 294 295 294 294 294 294 294 294 293 292 292 291 291 291 290 290 290 290 289 289 289 289 288 288 288 287 287 286
316 317 317 317 317 318 319 317 315 316 317 316 315 315 315 314 314 315 316 316 316 316 315 315 316 316 313 315 315 312 313 314 313 313 316 320 325 330 332 333 333 332 334 337 331 320 312 308 303 298 296 296 295 295 295 294 294 294 294 294 294 294 294 294 294 293 293 292 292 291 291 290 290 289 289 289 289 289 288 288 288 287 287 287 286 286
315 316 315 315 318 322 323 317 313 312 312 313 315 315 315 314 313 314 314 313 315 316 315 315 316 315 313 314 315 314 313 313 313 313 313 315 318 322 327 327 328 329 332 332 326 319 313 306 302 300 299 296 294 295 295 294 294 294 294 294 293 294 294 294 293 293 292 292 291 291 290 290 289 289 288 289 288 288 287 287 287 287 286 286 286 285
315 317 316 316 318 320 320 317 313 312 311 314 316 315 315 315 314 314 313 312 314 314 314 315 315 315 314 313 314 314 312 311 311 311 311 312 315 322 327 326 323 323 324 324 322 319 315 310 307 304 302 298 294 294 295 294 294 294 294 294 293 294 294 293 293 293 292 292 291 291 290 289 289 288 288 288 287 287 287 286 286 286 285 285 285 285
314 316 316 316 318 319 318 317 316 315 313 314 316 315 315 315 315 314 314 314 315 315 315 315 314 314 315 313 313 312 311 311 311 310 311 311 313 317 318 317 318 318 318 318 318 317 317 315 311 306 303 298 294 295 295 294 294 294 294 294 294 294 293 293 293 293 292 291 291 290 290 289 288 288 287 287 286 286 286 285 285 285 284 284 284 284
313 315 316 316 316 317 317 316 316 316 314 313 315 316 315 315 315 314 315 315 315 316 316 316 315 315 315 313 312 311 311 311 310 310 311 311 312 313 312 313 315 316 315 314 313 315 317 316 312 307 304 300 295 295 295 294 294 294 293 294 294 293 293 293 293 292 291 291 290 290 289 289 288 287 287 286 286 285 285 284 284 284 284 284 284 284
312 312 314 314 314 315 316 316 316 315 315 314 315 315 314 314 314 315 315 315 315 316 316 315 315 315 314 312 312 311 311 311 311 310 310 310 311 312 312 313 314 314 312 311 313 316 318 316 311 308 306 302 296 294 294 294 294 294 293 293 293 293 293 292 292 291 291 290 290 289 289 288 288 287 286 286 285 284 284 284 283 283 283 283 283 283
313 312 313 314 313 314 314 314 314 314 314 314 314 314 314 314 314 314 313 313 313 315 315 314 314 315 314 312 311 311 311 311 311 310 310 310 310 310 311 312 313 312 310 310 314 317 316 314 311 309 308 304 299 295 293 293 293 293 293 293 293 292 292 292 291 291 290 290 289 289 289 288 287 286 285 285 284 283 283 283 283 283 283 283 283 283
313 312 313 314 313 313 313 313 313 313 314 314 314 314 314 313 313 313 313 312 312 313 312 312 313 313 312 311 311 311 311 311 310 310 310 310 309 309 310 310 310 309 308 309 312 314 313 311 310 310 308 305 302 298 294 293 293 292 292 292 292 292 292 291 291 290 290 289 289 289 288 287 286 285 285 284 283 283 282 282 282 282 282 282 282 282
312 313 314 314 313 313 313 313 313 313 314 314 314 314 314 314 313 313 313 312 312 312 311 311 312 312 310 310 310 310 310 310 310 310 309 309 309 310 309 309 309 308 308 309 309 310 310 308 308 309 307 305 303 298 294 293 294 293 293 292 292 291 291 291 290 290 289 289 289 288 287 287 286 284 284 283 283 282 281 281 281 281 281 281 281 281
310 312 313 314 314 314 314 314 314 313 314 314 315 315 314 314 314 313 313 313 313 313 312 312 312 311 310 309 309 310 310 309 309 309 309 309 309 309 309 309 309 309 309 309 308 308 307 306 307 307 307 306 303 297 294 295 294 293 292 292 292 291 290 290 290 289 289 288 288 287 287 286 285 284 283 283 282 281 281 281 281 280 280 280 280 280
310 311 312 313 315 315 315 315 314 314 314 315 315 315 314 314 314 314 314 313 312 312 313 313 313 311 310 310 310 309 309 309 309 309 309 309 309 309 309 309 309 309 309 308 308 308 307 307 306 306 307 306 302 298 298 297 295 294 294 293 292 291 290 290 289 289 288 288 287 286 286 285 284 283 282 282 281 281 280 280 280 280 280 279 279 279
311 311 312 313 315 316 316 315 315 315 316 317 317 315 314 314 314 314 314 313 312 312 312 312 311 311 311 310 310 310 310 310 310 310 309 309 309 309 309 309 309 309 308 308 308 308 308 307 306 305 304 302 301 301 301 300 297 297 296 294 292 291 290 289 289 288 288 287 286 286 285 284 284 283 282 281 281 280 280 280 280 279 279 279 279 278
312 311 311 312 313 314 315 315 317 317 316 317 317 315 312 312 313 314 314 313 312 312 311 311 311 310 310 310 310 310 310 310 310 310 309 309 309 309 309 308 308 308 308 309 308 307 307 307 307 307 303 300 300 301 301 300 299 297 295 293 291 290 289 289 288 288 287 286 286 285 284 284 283 282 281 281 280 280 279 279 279 278 278 278 278 278
312 312 312 312 313 314 314 315 317 318 315 314 315 313 311 312 313 313 313 313 311 311 311 310 310 310 309 310 310 309 310 309 309 309 309 308 307 307 307 307 307 307 307 308 307 308 308 306 305 305 303 301 301 300 299 299 299 296 294 293 291 290 289 288 287 287 286 286 285 285 284 283 283 282 281 280 280 279 279 278 278 278 277 277 277 276
311 313 313 313 314 314 314 314 315 315 314 314 316 315 311 311 312 312 313 312 307 306 307 308 308 309 309 309 309 308 309 309 309 309 308 305 303 303 304 304 304 304 304 305 305 305 304 302 301 301 302 301 301 300 300 299 298 295 293 291 290 289 288 288 287 286 286 286 285 284 284 283 282 281 281 280 279 278 278 278 277 277 277 276 275 275
311 313 313 315 315 314 315 315 314 315 315 314 316 314 310 311 312 311 313 312 303 298 301 304 305 305 305 305 305 305 307 309 310 309 306 303 301 302 302 302 302 302 302 302 302 301 300 300 300 301 301 300 300 301 301 299 296 294 291 289 289 288 287 287 287 286 286 286 285 284 284 283 282 281 280 279 278 278 277 277 276 276 276 276 275 274
311 311 311 314 315 315 316 316 315 317 315 309 308 308 307 310 310 310 315 312 300 295 299 302 303 304 303 303 304 304 306 308 308 306 304 302 302 302 302 302 301 302 301 300 298 298 297 297 299 300 299 297 297 298 298 296 295 292 290 289 288 287 287 287 287 287 286 286 285 284 283 283 282 281 280 279 278 278 277 276 276 275 275 275 274 274
309 311 311 313 314 313 314 314 314 316 311 302 301 302 302 305 308 312 315 308 297 294 297 299 302 304 302 301 303 303 304 305 304 304 303 302 301 301 301 302 301 302 302 299 296 296 296 295 296 298 296 293 294 295 294 293 293 291 290 288 287 287 287 287 287 287 287 286 285 284 283 282 281 281 280 279 278 277 277 276 275 274 274 274 274 274
303 304 307 311 312 312 313 313 313 313 306 299 299 301 301 305 311 314 309 300 295 294 296 298 301 302 301 301 302 302 302 303 302 302 302 301 300 300 300 301 300 300 300 298 296 296 296 295 294 294 293 292 293 293 292 291 291 290 289 288 286 287 288 288 287 287 286 285 284 283 282 282 281 280 279 278 277 276 276 275 274 274 273 273 273 272
298 299 302 304 305 305 306 306 310 311 305 299 298 300 300 303 307 305 299 295 294 295 296 299 301 301 300 301 301 301 301 300 300 300 300 300 300 299 300 300 299 299 298 298 298 296 295 294 294 293 293 293 293 292 292 291 290 289 288 286 286 286 287 287 287 286 285 284 283 283 282 281 280 280 278 277 277 276 275 274 273 273 273 272 272 272
297 298 298 298 299 299 300 303 307 308 303 298 298 298 298 298 298 297 296 294 295 297 298 299 300 299 299 299 298 299 299 299 299 299 299 299 299 299 299 300 299 299 299 299 299 297 295 296 296 293 293 293 293 293 292 291 290 289 287 286 286 287 286 286 286 285 284 283 282 282 281 280 279 278 277 277 276 275 274 273 273 272 272 272 271 271
295 296 295 297 299 300 300 302 303 301 298 298 298 298 296 295 295 295 295 295 296 298 298 298 298 298 298 297 297 297 297 297 298 298 297 298 298 298 299 299 298 299 299 298 298 297 296 296 296 294 294 294 293 293 293 292 290 288 287 287 288 287 286 286 285 284 283 282 281 281 280 279 278 277 276 276 275 274 273 272 272 271 271 271 271 270
296 296 296 296 297 297 297 298 298 297 296 296 296 295 294 294 294 295 296 296 297 298 297 296 296 296 296 296 296 296 295 296 297 297 297 297 297 298 298 298 298 298 298 298 298 297 296 296 295 293 293 293 293 293 293 293 291 288 288 290 289 287 286 285 284 283 282 281 280 279 278 278 277 276 275 275 274 273 272 271 271 270 270 271 270 270
294 294 293 293 293 293 293 293 294 294 293 292 291 292 293 294 294 296 296 295 295 296 296 295 294 294 294 295 295 294 294 294 295 295 295 295 296 296 297 297 297 298 298 297 297 297 297 296 294 292 292 293 293 292 292 292 291 290 291 292 290 287 286 285 283 282 281 279 279 278 277 276 275 275 274 274 273 273 272 271 271 270 270 270 270 270
291 292 291 291 291 290 289 290 291 290 290 289 289 292 293 292 292 293 293 292 292 293 293 292 292 292 292 293 293 292 292 292 292 292 292 292 293 294 294 295 295 296 296 296 297 296 296 296 297 297 297 295 293 292 292 291 292 292 292 291 289 287 286 284 282 280 279 278 277 276 276 275 274 273 273 273 272 272 271 271 271 270 270 270 269 270
291 291 290 289 289 288 288 289 289 289 289 289 289 290 290 288 288 289 290 289 289 289 289 289 290 290 290 290 290 290 289 289 289 290 290 291 291 292 292 292 293 293 294 294 294 294 295 296 298 298 298 295 294 293 292 291 292 293 292 290 288 287 284 283 281 280 278 277 276 275 274 274 273 272 272 272 271 271 270 270 270 271 270 270 271 271
290 290 289 288 288 289 288 288 288 288 288 288 289 289 288 286 286 287 287 286 286 286 286 286 286 286 286 286 287 287 287 288 288 288 289 289 289 290 290 291 291 292 292 292 292 293 294 295 296 296 295 295 294 294 293 292 293 293 292 289 288 286 283 281 280 279 278 276 275 274 273 273 273 272 271 271 270 270 270 270 270 271 271 271 272 273
289 289 288 289 288 288 288 288 289 289 287 288 289 288 286 285 285 285 284 284 284 284 283 283 283 283 283 284 284 284 284 284 285 285 286 286 287 287 288 288 289 289 290 290 291 291 292 293 293 293 293 294 294 294 293 293 293 292 291 289 287 285 283 281 279 278 277 275 274 273 273 272 272 271 271 270 270 269 270 270 270 271 271 271 272 273
289 289 288 288 288 288 288 289 289 288 287 288 287 285 284 284 284 282 281 281 281 281 280 280 280 280 281 281 281 281 280 280 281 282 283 283 283 284 284 285 285 286 286 287 288 289 290 291 292 292 293 293 293 293 293 293 292 291 290 288 286 284 283 281 278 277 276 274 273 272 272 271 271 270 270 270 269 269 269 270 270 271 271 271 272 272
Wind_Speed
6 4 4 7 12 14 10 11 15 13 8 7 8 8 9 8 10 13 13 7 7 6 8 12 15 17 19 19 17 14 10 10 12 12 12 12 12 13 16 16 14 15 16 13 12 21 28 30 32 34 34 34 34 36 38 40 41 41 42 42 41 41 42 42 41 40 39 38 36 35 35 35 34 33 32 31 30 29 29 28 26 25 24 23 21 20
4 6 8 14 17 11 8 11 13 12 10 11 10 10 10 8 12 14 11 8 6 5 8 12 14 16 18 19 15 10 8 10 14 14 15 15 14 14 16 18 18 15 13 9 8 14 20 25 29 31 32 34 35 36 39 41 41 41 42 43 43 43 43 44 44 43 42 41 40 38 38 37 36 35 35 34 33 31 30 28 27 25 24 23 22 20
4 7 12 16 13 7 6 9 10 11 11 10 8 8 9 7 10 13 10 8 4 5 8 10 12 14 15 17 15 11 10 12 14 15 17 15 14 15 16 17 18 15 12 9 6 7 14 21 26 29 31 35 37 37 39 40 40 40 41 42 42 43 44 44 44 44 42 41 39 37 36 36 35 35 35 34 33 32 30 29 27 26 25 24 22 21
6 7 12 13 9 8 11 9 8 8 7 8 8 8 8 7 8 10 7 5 3 5 6 7 9 10 10 13 14 14 13 13 15 17 17 15 14 17 18 16 16 16 13 9 6 6 10 16 22 26 29 32 33 34 36 38 40 41 42 43 43 44 44 44 44 43 41 39 37 34 33 34 33 32 33 31 30 31 30 29 28 27 26 25 23 22
11 8 8 11 11 12 14 11 8 6 7 11 12 10 11 11 12 13 7 4 4 5 5 5 9 9 9 14 16 13 11 13 15 16 16 15 15 17 18 16 16 17 14 9 8 8 9 12 18 24 28 30 32 35 38 41 42 42 43 44 44 44 45 45 44 43 40 38 35 31 28 29 28 27 29 30 30 31 31 32 32 30 29 27 25 24
12 8 6 8 10 12 13 10 7 7 8 13 11 12 16 15 14 14 8 7 5 6 4 1 7 9 7 13 16 9 7 10 10 12 16 15 15 15 16 16 16 15 11 9 10 11 10 11 14 20 25 29 31 36 40 42 44 43 44 45 44 44 44 44 44 43 41 39 38 35 33 32 29 28 32 36 37 37 37 36 35 32 31 29 27 25
7 8 8 9 10 10 10 7 7 11 9 11 7 11 15 12 11 10 6 3 3 6 4 3 1 9 6 7 11 8 8 11 10 10 14 13 13 13 13 14 13 11 8 8 9 10 11 11 12 16 24 30 32 35 38 40 42 43 44 45 45 44 44 44 44 43 43 41 40 40 39 38 36 34 36 39 39 39 39 37 35 34 32 30 28 26
5 6 8 13 11 8 8 8 9 12 8 8 2 7 9 8 9 7 4 5 4 4 5 2 3 7 12 7 10 11 11 11 10 10 12 13 13 14 14 13 13 11 8 9 9 10 12 12 13 17 25 32 32 34 37 39 41 42 43 44 44 43 43 43 43 44 45 44 43 42 40 39 39 38 38 37 37 38 38 37 36 34 32 31 29 28
3 5 8 11 9 7 8 8 9 11 8 5 2 5 5 5 5 2 2 4 2 4 5 4 6 3 14 8 8 10 11 10 11 12 14 14 14 14 15 14 14 12 9 10 11 12 13 13 17 22 27 29 30 33 38 39 40 41 41 42 42 42 42 42 44 46 46 46 44 43 40 38 38 37 35 35 36 36 36 36 36 35 33 32 30 28
1 4 7 7 6 8 6 2 5 10 8 3 5 4 5 3 2 4 1 1 3 5 7 5 7 3 14 9 6 5 6 8 10 12 13 13 13 14 13 13 14 12 7 9 11 12 13 15 20 23 23 25 28 32 36 37 37 38 38 39 41 42 42 43 44 46 46 45 44 43 43 40 38 35 32 32 34 35 35 35 36 35 35 33 31 29
2 1 2 4 4 5 4 3 1 3 4 1 5 4 6 5 5 4 1 4 2 9 6 9 11 7 9 6 6 5 6 10 10 8 9 10 10 12 12 12 14 11 7 7 9 9 9 12 16 19 20 24 27 29 31 33 34 36 37 38 40 41 42 42 44 46 46 46 45 45 45 43 40 37 34 34 34 35 35 36 36 36 35 34 33 31
5 2 2 3 3 5 6 3 2 4 2 3 4 4 4 5 4 5 5 5 2 10 5 12 13 11 10 6 3 3 5 7 9 8 9 10 11 12 11 11 13 10 7 7 7 7 7 8 11 14 18 22 25 27 30 32 34 35 37 38 39 40 41 42 44 46 46 46 46 45 45 44 43 41 40 38 38 38 38 38 37 36 35 34 33 31
6 8 7 2 1 6 6 2 3 6 3 4 4 5 1 4 3 3 4 1 4 8 5 9 9 8 12 7 2 7 8 6 8 8 10 11 11 11 10 12 12 7 6 7 7 8 8 9 10 11 15 21 25 29 31 32 34 35 37 38 39 41 42 42 43 45 47 47 48 47 45 44 43 42 43 42 41 41 41 40 39 38 38 37 35 34
5 8 5 4 3 5 9 6 4 3 3 6 6 6 5 3 1 2 4 3 5 7 6 5 6 5 9 4 7 13 13 12 10 9 11 11 11 12 11 12 11 6 7 7 8 9 10 11 11 11 15 20 24 28 31 33 35 35 36 38 40 40 41 42 43 45 46 48 49 48 46 45 43 43 44 43 42 42 42 41 42 42 41 41 40 38
3 9 5 9 4 7 13 13 11 5 4 7 6 6 5 5 4 4 5 6 6 6 5 3 5 4 5 2 8 12 11 10 8 10 11 9 10 10 9 11 10 6 6 6 7 9 10 11 11 11 16 20 24 27 30 33 35 35 37 40 40 40 41 43 44 45 47 48 48 47 46 45 45 44 43 43 43 43 43 43 43 43 43 42 41 39
5 11 7 7 2 9 13 12 10 7 1 4 5 4 3 5 6 4 6 6 2 4 6 3 4 6 4 5 7 8 9 9 8 8 7 7 10 8 9 12 8 5 6 6 7 8 9 9 9 11 16 20 22 25 29 32 35 38 39 40 41 42 43 44 46 47 49 48 45 46 47 46 45 44 43 43 43 44 45 45 44 44 43 42 40 38
5 7 4 2 1 5 7 4 5 6 3 2 4 5 5 4 6 4 6 3 1 4 7 4 5 6 5 7 7 4 6 7 6 7 6 10 12 10 11 12 6 5 6 6 7 8 9 9 9 12 17 20 23 27 33 37 40 41 39 39 40 41 40 43 46 47 47 45 43 45 46 47 46 46 46 46 45 45 45 45 45 44 43 41 40 37
7 6 4 4 2 3 3 2 2 3 4 6 4 6 3 3 2 3 2 2 1 6 7 7 10 8 6 8 5 6 6 7 8 9 10 11 10 9 12 11 5 5 6 6 6 7 7 8 9 12 17 23 28 33 37 39 39 38 38 39 40 40 42 45 45 44 44 44 44 46 47 47 48 48 47 46 44 44 44 44 44 43 42 41 39 37
5 6 5 2 2 2 2 2 3 4 3 5 3 3 3 1 2 2 3 3 5 8 7 10 14 9 7 7 4 4 6 9 10 9 9 9 9 8 11 11 7 5 6 5 7 7 7 9 9 12 18 24 29 32 32 32 32 34 37 39 40 42 43 42 40 41 43 44 45 45 46 47 47 46 45 43 42 42 43 44 44 43 41 40 38 37
3 5 6 1 1 1 2 1 5 2 0 1 1 2 1 3 4 3 4 4 5 9 8 10 12 10 9 6 3 7 8 8 9 7 6 8 8 8 9 9 7 5 6 6 7 8 9 9 9 13 20 24 27 29 28 28 31 34 37 37 39 40 39 38 39 41 43 43 44 43 43 44 44 44 43 42 42 42 43 43 43 42 41 40 38 37
1 4 7 2 3 1 1 4 7 6 4 2 1 3 3 3 1 1 3 2 5 8 7 8 9 10 8 4 7 5 2 4 6 3 5 7 6 8 7 7 7 6 7 8 8 8 9 8 9 15 20 21 21 23 26 30 33 34 34 36 39 38 36 38 40 42 43 44 43 42 42 43 43 42 42 42 42 42 42 42 43 42 41 40 40 39
1 4 6 2 1 5 7 6 9 11 9 7 7 7 7 6 4 4 7 5 4 6 5 7 9 10 8 3 6 5 4 5 6 4 6 7 7 7 7 7 8 7 7 8 8 8 8 8 10 13 17 18 18 22 27 30 31 33 35 38 39 37 37 41 43 45 45 43 41 42 42 41 40 40 40 41 42 42 43 43 43 43 42 41 41 40
1 1 5 5 5 7 8 4 6 11 9 6 5 6 6 6 5 7 9 6 4 4 4 7 8 10 9 3 3 7 4 3 5 5 6 7 6 6 7 7 7 7 8 8 7 7 8 9 9 9 12 16 20 24 27 30 32 36 38 39 37 37 41 44 44 42 40 39 39 41 39 37 37 39 39 40 41 41 41 41 42 42 42 42 41 39
4 1 3 6 5 5 6 5 1 3 3 1 2 3 4 5 6 8 7 3 4 5 4 8 9 8 9 5 5 9 6 3 7 7 6 8 8 6 7 8 7 8 8 7 6 7 7 7 6 7 9 13 18 23 26 30 33 35 35 36 37 41 44 44 41 38 37 38 39 38 37 37 38 38 39 40 40 40 39 39 39 41 41 42 41 40
4 2 1 2 4 4 5 5 4 2 1 1 3 5 7 9 8 7 5 3 6 8 9 10 8 6 9 9 8 13 15 14 15 13 10 11 10 7 7 8 8 9 9 9 8 7 7 7 7 9 9 11 16 21 24 27 30 31 33 36 39 42 43 41 39 38 39 39 38 37 38 38 38 39 40 40 39 38 38 38 38 39 40 40 40 40
3 2 1 2 5 6 6 6 6 4 2 1 3 6 10 13 13 10 8 7 9 10 11 11 9 10 13 16 19 22 24 23 21 19 15 11 9 9 9 8 9 9 10 12 11 8 7 7 8 10 10 11 15 19 22 25 28 30 33 36 39 41 40 39 40 40 40 40 39 39 39 38 39 40 40 40 38 37 37 37 38 39 39 40 40 39
2 4 7 10 11 10 11 10 7 4 5 5 6 9 10 11 13 11 8 9 10 10 11 12 15 17 16 17 22 25 26 26 24 21 17 11 9 11 10 9 9 10 11 11 9 7 8 8 10 12 11 11 14 19 23 25 28 30 32 35 39 40 38 38 40 40 40 39 38 38 38 39 40 40 39 39 37 36 37 37 38 39 39 39 40 39
3 6 12 16 18 17 17 18 15 13 14 14 14 15 15 13 12 11 11 12 11 9 12 15 19 21 18 18 23 25 26 26 23 19 16 13 11 10 9 10 10 10 11 8 6 8 11 11 12 12 11 11 13 19 22 25 28 31 32 34 36 37 37 37 38 38 38 38 37 38 39 40 40 39 39 38 36 36 37 38 39 40 40 40 40 40
4 7 12 16 21 22 21 22 21 19 19 19 19 20 21 20 17 16 17 18 16 15 16 17 19 22 18 18 22 24 25 25 22 19 18 16 16 13 10 9 10 12 12 8 8 11 12 12 12 11 12 11 12 15 19 23 27 29 30 33 33 35 37 37 36 37 37 36 38 39 39 38 37 37 37 37 37 38 38 39 40 40 40 40 40 39
4 7 12 17 20 21 22 22 23 23 22 22 22 23 23 23 23 22 21 23 23 23 22 21 23 23 18 16 20 22 23 21 17 18 20 20 24 22 14 11 12 15 15 10 9 12 12 13 13 13 12 11 11 14 17 21 25 28 31 32 31 33 35 35 35 36 36 37 39 38 36 36 37 37 38 38 38 39 39 39 39 40 40 40 39 38
7 9 11 14 14 14 18 21 23 24 24 24 26 25 25 25 25 24 23 22 22 23 24 24 24 21 16 18 22 22 21 18 16 20 23 24 28 28 19 15 15 15 15 12 11 12 14 14 14 12 12 12 14 16 18 22 26 29 29 28 30 33 34 35 35 35 36 37 36 35 35 36 37 37 38 39 39 38 39 39 40 40 39 39 37 36
6 7 6 8 8 10 15 20 23 24 25 25 25 24 25 25 23 23 22 20 20 22 23 23 18 16 16 20 22 21 21 20 20 23 24 25 28 27 21 18 16 14 14 15 13 13 14 14 14 13 13 14 15 16 20 24 25 24 26 28 31 32 32 34 35 35 35 34 33 34 36 37 37 37 38 38 38 39 39 39 39 39 39 38 37 36
5 5 5 7 8 9 14 19 21 19 17 16 18 24 28 28 25 24 21 21 23 20 18 17 16 18 19 18 17 18 20 22 22 22 23 24 24 22 19 18 17 15 15 16 17 16 15 14 13 13 14 15 15 19 26 29 26 26 30 33 32 31 32 34 35 34 33 32 33 35 36 37 38 38 38 39 39 40 40 40 40 40 40 39 38 37
7 9 9 8 8 9 13 16 14 12 10 9 13 22 29 29 29 27 25 26 26 22 19 19 20 21 19 16 17 19 20 21 22 21 19 17 14 14 17 19 18 16 15 15 15 14 12 11 10 12 14 18 22 27 32 31 29 31 33 31 29 30 32 33 33 32 32 33 35 36 37 38 39 38 38 39 40 41 41 42 42 41 41 40 39 38
9 9 8 6 6 6 7 9 10 9 8 7 10 17 23 27 30 29 27 27 27 25 24 25 25 23 21 19 19 19 21 22 22 20 17 15 13 12 16 20 20 19 16 13 12 13 12 10 10 11 13 19 27 29 28 27 29 30 27 26 28 31 32 33 32 32 32 33 35 36 37 38 39 38 38 39 40 41 42 42 42 41 41 41 41 41
11 10 7 5 6 5 4 7 11 9 3 1 3 9 14 18 21 22 23 24 24 23 22 23 25 24 21 21 20 19 20 20 17 15 14 14 13 12 13 17 19 20 18 15 14 14 13 11 11 13 17 23 26 25 24 27 29 27 24 26 29 31 31 31 30 30 31 33 35 37 39 39 39 38 39 40 41 41 42 42 42 42 42 41 40 39
15 12 8 7 7 8 10 11 12 14 10 5 5 9 13 16 16 16 17 14 9 10 12 13 16 17 15 15 15 15 14 13 11 9 8 12 14 13 12 12 14 17 17 16 16 15 15 15 17 19 22 23 22 22 24 26 25 24 23 24 26 27 29 29 28 30 33 34 37 39 40 40 40 39 39 40 41 41 41 42 42 42 42 42 40 38
15 14 11 10 7 9 14 14 12 15 14 9 6 7 11 15 16 14 14 7 7 15 15 15 15 13 12 14 17 16 10 6 6 6 8 13 14 12 13 12 11 13 13 14 15 14 16 18 19 21 22 20 21 24 24 22 22 23 21 21 24 26 25 26 28 31 34 36 38 39 40 41 41 40 40 41 41 41 41 41 42 42 43 43 41 39
11 11 11 9 6 8 12 11 10 11 6 5 9 9 9 10 10 9 10 5 9 16 15 15 14 10 10 13 14 13 9 6 5 7 8 12 13 11 11 12 12 12 13 15 16 13 15 20 21 19 17 14 16 19 17 17 21 21 18 20 24 24 22 25 30 34 36 37 38 38 39 39 40 41 41 42 42 41 41 42 42 42 41 41 40 39
6 6 6 7 8 11 11 7 6 5 1 7 12 15 17 13 6 4 6 3 10 16 15 14 11 7 10 12 10 8 8 5 7 9 10 11 12 11 9 10 12 12 11 14 18 19 20 21 18 13 11 11 12 11 8 12 17 17 17 19 20 20 24 30 34 35 34 33 33 36 37 38 40 41 42 42 41 40 41 41 40 40 40 38 37 37
4 3 5 6 9 13 14 12 9 4 2 7 12 15 18 14 2 4 3 4 9 16 16 11 9 8 10 10 7 6 6 6 7 10 11 11 12 13 11 9 10 11 10 11 16 20 20 20 16 12 12 14 13 8 3 7 8 7 9 13 16 20 27 30 28 27 28 29 31 35 37 38 40 40 40 40 39 38 38 38 38 39 38 36 35 35
3 3 4 5 7 9 9 10 10 5 3 11 15 13 11 8 3 3 6 6 8 14 14 8 8 11 11 9 6 6 8 9 9 10 12 12 12 13 14 12 12 14 15 16 18 19 17 15 15 14 13 13 11 6 3 6 5 3 4 7 10 12 14 16 19 23 27 29 31 34 35 36 37 38 37 37 38 38 37 35 36 36 36 35 34 33
3 5 6 5 6 7 7 8 7 4 4 14 17 11 7 5 5 7 8 8 9 9 8 8 9 10 10 10 10 10 11 12 12 11 12 13 13 13 14 14 12 13 14 14 16 19 16 11 11 12 11 9 8 6 5 7 8 6 7 10 12 10 8 12 17 22 25 27 30 32 33 34 35 36 37 38 39 39 37 35 35 35 35 34 33 32
4 4 6 5 3 4 5 5 4 6 10 11 8 4 5 5 5 6 7 8 7 5 4 7 9 8 9 11 12 13 13 13 13 13 14 14 15 14 14 14 13 13 13 12 14 19 17 11 10 14 13 9 8 7 8 10 12 10 10 15 18 15 14 17 19 22 25 27 29 30 31 32 34 35 36 38 38 38 36 36 36 35 33 32 32 31
4 4 5 5 4 3 4 6 9 11 11 7 3 5 10 8 4 5 5 5 6 6 5 6 8 10 10 10 12 13 13 13 14 14 14 14 15 14 14 14 14 13 13 13 15 19 18 14 13 14 14 13 12 10 11 14 15 13 13 19 21 18 18 20 23 25 27 27 28 30 31 31 33 34 36 38 39 37 36 36 36 34 32 31 31 30
5 7 7 6 6 8 8 10 10 10 13 13 10 7 7 5 4 4 4 5 6 7 6 6 8 10 10 10 11 12 12 14 15 15 14 13 14 14 13 13 13 12 12 12 14 18 20 18 15 12 12 15 16 14 15 17 18 17 18 20 22 22 22 23 25 25 25 26 27 29 31 31 32 33 35 37 38 37 37 39 38 35 32 32 31 30
4 5 7 6 7 9 9 8 9 11 16 19 14 6 5 5 6 5 4 4 6 6 6 7 9 10 10 10 10 12 14 15 16 16 15 14 14 14 13 13 13 13 13 14 17 20 18 14 12 10 10 13 18 19 18 19 22 23 21 19 20 23 25 26 27 26 26 27 27 28 31 32 32 33 34 36 37 36 36 38 39 37 35 36 36 32
4 4 6 8 9 9 10 11 12 12 13 13 10 4 4 5 7 7 5 5 6 7 7 8 9 10 11 11 11 13 15 15 15 15 15 14 13 13 13 13 14 14 15 16 20 21 17 12 12 12 11 13 20 22 21 23 26 27 24 21 21 24 26 27 29 29 28 29 29 29 30 32 32 32 33 34 36 37 37 39 41 40 39 42 44 39
6 6 7 9 9 9 10 11 11 10 11 11 7 4 4 6 7 6 6 7 8 8 8 9 10 11 12 13 13 12 14 15 14 14 15 15 15 14 13 14 15 15 15 17 19 20 17 14 14 14 13 17 23 24 23 26 29 29 28 26 25 26 28 28 28 27 27 29 30 30 31 31 32 33 32 31 32 34 35 37 42 41 38 40 44 44
6 7 8 7 7 8 10 7 3 5 11 13 7 4 6 9 8 6 6 7 8 8 9 10 11 11 11 12 12 12 13 14 14 15 15 14 15 16 16 17 16 15 16 20 22 22 21 20 20 18 18 23 27 25 25 28 30 30 29 28 27 29 30 29 26 24 25 27 28 29 31 31 31 32 32 31 31 30 28 29 34 36 35 36 38 38
7 8 9 7 8 11 13 7 2 2 7 10 8 6 7 7 6 8 10 9 7 7 8 9 11 11 11 11 11 11 13 15 15 15 14 14 15 16 17 18 18 17 18 21 21 19 20 22 22 20 20 24 27 27 27 29 30 29 28 28 29 30 31 29 25 22 23 26 28 30 31 30 29 30 30 30 31 30 27 25 25 24 26 30 30 28
Wind_Direction
157 174 169 188 225 229 208 199 219 234 247 255 256 260 255 255 264 262 268 253 185 200 230 224 236 244 250 255 252 254 256 257 257 249 245 246 249 254 255 256 254 248 253 259 235 221 220 216 207 202 199 196 193 194 193 191 191 190 188 187 188 188 188 188 187 188 187 187 188 189 191 193 193 195 196 198 202 205 206 206 204 202 201 201 197 195
165 192 204 211 226 229 197 200 221 233 241 249 252 260 262 252 262 262 264 264 201 199 250 240 244 250 251 257 256 249 241 247 251 248 249 246 244 251 255 258 257 254 259 270 247 217 211 206 197 193 190 188 187 189 190 190 189 188 188 188 188 187 188 189 189 189 190 192 192 191 193 193 192 194 196 197 200 203 205 206 206 204 203 204 201 197
210 222 222 219 232 242 220 210 214 226 231 240 245 256 262 251 268 269 256 263 220 188 256 253 249 253 252 258 258 245 232 238 244 244 249 249 247 253 254 255 259 260 264 263 251 210 196 191 185 184 185 187 188 187 187 188 187 186 187 188 189 189 189 191 192 192 193 195 196 195 195 194 192 193 197 198 199 201 203 205 206 206 207 208 204 201
226 232 225 219 224 235 241 234 219 238 242 236 239 249 257 248 263 268 250 264 238 208 257 267 262 257 255 265 261 245 236 240 246 246 251 251 249 253 252 255 260 260 261 250 232 206 188 181 179 181 183 185 184 183 183 184 184 185 187 189 190 190 191 192 193 194 195 195 195 197 197 195 193 193 196 197 198 200 202 203 205 208 210 210 208 205
239 228 204 203 208 221 240 240 218 236 256 243 234 234 249 245 243 253 268 316 300 273 287 291 288 271 234 247 256 247 235 241 247 249 255 254 249 254 257 256 257 258 254 234 215 204 186 179 182 183 182 181 181 182 183 184 186 187 189 191 192 192 193 194 194 194 194 193 191 191 190 190 191 191 191 192 195 197 201 203 205 208 209 210 209 207
248 232 174 186 209 217 232 240 206 196 247 257 232 216 237 245 245 256 289 335 319 294 292 243 287 279 209 220 247 249 228 238 241 240 247 251 250 254 258 256 253 254 247 222 208 197 188 185 183 182 180 180 183 185 186 187 188 189 190 192 193 193 194 195 194 194 194 192 190 188 184 184 185 185 190 194 195 196 200 204 206 207 208 209 208 208
242 223 185 197 214 211 222 245 209 188 231 267 229 201 226 242 254 264 281 307 268 265 271 119 266 283 258 216 233 231 221 233 234 231 239 244 247 247 250 254 253 250 235 217 209 191 185 184 178 182 185 185 188 188 187 188 189 191 191 192 193 194 194 195 194 194 194 193 192 193 192 190 189 189 196 199 199 199 201 204 205 206 207 208 208 208
211 205 197 210 215 205 215 240 214 183 212 266 230 185 207 228 250 253 236 228 235 273 283 148 132 281 282 244 203 205 211 228 236 237 241 240 240 244 247 252 254 246 220 202 203 191 188 188 183 188 191 191 190 187 186 188 190 192 192 193 194 194 195 195 195 195 196 196 195 196 196 197 197 198 200 200 201 202 202 203 204 205 206 207 208 209
167 185 206 205 204 209 218 229 199 172 205 252 134 160 165 186 221 166 173 232 301 333 284 205 138 256 280 254 183 198 206 221 237 234 236 237 235 242 246 248 254 251 221 197 198 193 191 192 192 192 192 192 189 186 188 190 191 192 193 193 194 195 196 196 197 197 198 199 198 197 198 200 202 203 203 200 200 201 201 202 203 204 205 207 208 210
143 199 201 172 182 216 216 220 172 174 218 231 112 99 68 70 62 77 147 204 39 304 261 194 148 222 278 265 164 181 203 214 235 233 235 237 234 240 246 250 256 255 227 205 204 196 193 194 194 192 189 188 189 189 190 191 191 192 193 193 194 196 197 198 198 199 199 200 200 199 200 201 201 201 201 199 198 199 199 200 202 203 204 205 206 207
230 221 194 164 186 196 142 83 110 176 223 147 90 52 26 8 27 54 13 72 50 276 239 177 177 192 271 279 144 167 203 199 212 227 242 249 246 247 249 251 255 253 228 207 208 198 191 191 190 188 184 185 189 191 191 191 192 193 193 194 196 198 199 199 199 200 200 201 202 202 202 202 200 198 197 196 196 197 197 197 199 201 203 205 206 206
257 263 224 213 177 126 103 94 351 9 41 82 91 71 18 326 11 28 358 58 220 265 217 180 183 184 235 264 144 230 260 204 200 207 227 241 243 246 248 249 252 246 216 194 198 188 174 176 183 185 184 185 188 190 192 192 192 194 195 196 197 199 200 200 200 201 202 202 204 205 204 204 202 199 197 197 197 197 196 197 197 199 201 203 204 205
264 237 212 203 175 149 134 134 342 351 26 105 113 105 62 298 341 354 318 74 221 258 226 190 181 201 241 253 232 273 284 236 210 205 214 223 232 241 244 249 253 237 193 187 189 182 177 182 184 185 186 186 189 192 193 193 194 196 197 197 199 201 201 201 201 202 203 204 205 206 206 205 204 202 201 200 200 199 198 198 196 196 198 199 202 204
286 274 201 151 272 184 156 175 235 275 184 160 150 146 164 214 249 265 263 266 259 262 251 191 165 240 279 276 214 233 243 233 215 211 220 218 222 231 231 245 258 229 186 191 190 184 186 190 188 188 189 190 193 194 193 195 197 197 199 200 201 203 203 202 203 204 205 206 207 207 206 206 205 205 204 203 202 201 200 199 199 199 199 200 202 205
249 291 198 161 222 187 174 202 208 169 159 183 160 146 174 182 180 207 235 252 270 286 280 190 161 238 296 280 213 221 244 250 227 219 226 228 233 238 241 257 263 232 198 194 192 195 197 194 190 190 191 193 195 194 195 197 199 199 201 203 203 204 203 203 204 206 207 209 209 207 207 207 207 208 207 206 205 204 202 201 201 201 202 203 205 207
216 270 228 175 179 165 178 211 191 130 129 220 130 119 214 201 186 222 257 240 234 319 290 221 199 240 254 260 247 238 255 264 253 244 244 253 253 250 259 263 253 213 207 201 196 204 205 198 194 193 193 194 193 193 197 201 201 202 204 204 205 206 205 204 205 207 209 210 210 209 208 208 208 209 209 208 207 206 205 203 203 204 205 206 207 208
230 276 249 171 18 163 178 206 175 161 197 189 131 179 212 167 166 217 280 286 142 267 273 242 240 278 311 290 272 260 267 270 282 280 253 243 247 244 252 257 237 201 215 212 207 209 204 200 202 200 196 192 191 194 201 204 204 205 205 204 206 208 207 208 208 209 210 210 210 211 211 209 208 209 210 210 208 206 205 205 205 206 206 207 207 207
235 265 243 175 227 250 183 112 296 256 154 130 174 210 180 67 120 165 235 315 271 249 268 269 264 281 305 287 307 12 339 288 260 249 239 241 247 251 256 256 239 215 222 228 229 228 220 212 207 204 202 199 198 200 204 206 205 205 206 206 207 208 209 210 210 210 210 210 212 213 212 211 210 210 211 212 210 207 204 204 205 205 206 206 206 205
238 253 262 166 176 278 64 108 281 299 127 138 202 201 114 141 228 162 170 211 240 244 257 272 276 275 251 256 296 311 277 261 252 245 247 254 250 247 256 260 252 222 218 225 228 230 228 222 212 204 206 206 206 208 209 207 205 206 208 209 210 211 212 212 211 211 212 213 213 214 214 214 212 211 211 211 210 208 205 204 204 203 205 204 203 202
241 242 259 3 28 312 35 188 210 222 296 53 360 340 66 180 188 184 181 171 220 241 250 266 277 273 247 222 205 239 241 242 259 271 267 261 257 256 262 271 267 233 216 218 219 223 223 223 222 214 212 211 210 211 209 204 205 208 210 210 213 215 214 212 212 213 214 214 215 215 216 215 214 212 211 210 210 208 207 206 204 203 203 201 200 200
220 236 243 323 354 287 207 210 185 178 196 178 216 256 253 227 183 234 237 179 211 234 238 245 256 266 262 181 167 209 195 187 215 253 273 268 273 273 267 264 258 235 224 221 217 223 223 223 228 224 223 221 217 212 206 204 206 208 211 213 214 215 214 213 214 214 215 215 215 215 216 216 214 212 211 210 210 209 208 207 205 203 201 199 198 198
223 235 237 217 224 239 242 221 185 186 186 176 198 214 216 224 231 255 249 226 221 238 236 237 248 260 261 152 150 181 157 179 200 195 233 241 240 254 256 242 233 227 228 227 219 221 220 220 225 223 221 218 214 211 206 204 206 207 211 214 214 214 214 215 215 215 215 215 214 216 217 215 213 211 210 209 209 209 208 206 205 202 199 197 197 197
345 228 251 248 229 245 269 267 193 200 195 178 198 204 208 220 216 233 243 239 244 249 242 248 252 256 258 269 312 281 262 265 270 249 242 251 252 264 275 271 261 251 245 235 223 222 220 222 226 225 219 214 213 213 208 204 206 209 212 213 212 213 216 217 217 216 214 214 214 216 216 214 212 211 209 209 209 208 207 205 203 200 198 196 195 196
346 360 263 270 274 288 308 333 344 200 172 166 233 199 207 227 222 235 252 277 270 247 240 254 250 256 274 292 318 300 297 306 288 274 263 272 272 265 268 276 276 267 265 256 237 231 229 226 223 221 219 216 217 216 211 207 208 211 213 212 211 214 218 218 217 215 214 214 215 215 214 213 212 210 208 209 209 208 206 204 201 199 197 196 195 195
307 322 10 296 282 295 312 309 288 265 160 200 232 209 218 232 235 249 267 279 265 253 252 264 263 262 282 295 299 290 285 279 274 267 259 263 263 246 240 250 256 262 272 269 256 242 231 221 215 218 220 218 219 217 214 212 212 211 212 212 213 216 219 217 214 213 213 212 212 212 212 211 210 208 208 208 208 207 205 203 201 199 197 196 195 194
216 202 167 230 241 242 243 247 245 233 210 239 241 224 224 228 231 240 250 245 246 245 243 253 261 261 268 281 283 278 275 273 270 269 266 259 249 243 243 246 253 259 260 257 255 250 241 230 224 226 226 224 224 221 217 216 215 214 214 214 215 217 217 215 213 212 211 210 209 209 209 209 208 208 207 207 206 205 204 202 200 199 197 197 195 194
169 179 206 218 224 232 237 242 247 241 242 253 251 243 236 234 234 235 239 241 242 243 241 239 245 253 255 260 267 269 271 272 271 273 274 263 243 246 250 244 242 245 247 248 251 255 254 246 235 231 229 228 227 224 220 217 216 216 216 216 217 217 216 213 211 209 209 208 208 207 207 206 207 207 206 205 204 202 201 200 200 199 198 197 196 195
158 197 214 220 226 232 238 245 251 254 253 251 250 251 250 244 238 234 235 240 241 246 247 236 237 247 248 245 254 262 266 270 273 276 277 272 259 249 242 240 240 245 250 247 243 247 248 245 240 235 233 231 228 227 223 220 220 219 218 218 217 215 214 211 208 207 206 205 206 207 207 206 205 205 204 202 200 199 199 199 199 198 197 197 197 197
191 219 216 224 230 229 232 239 242 245 249 248 247 249 250 248 243 240 242 242 239 242 250 246 242 246 245 240 246 253 259 265 273 279 281 281 276 261 241 236 245 255 257 245 233 242 243 242 242 237 234 232 228 228 225 223 224 223 221 221 218 213 212 209 205 204 203 203 205 207 206 204 202 201 200 198 197 197 197 196 196 196 196 196 197 197
216 231 215 226 237 232 230 233 236 240 245 248 247 245 246 249 248 245 246 246 246 249 255 257 254 251 249 246 248 251 257 264 275 282 283 282 279 271 255 242 251 264 270 258 235 239 242 238 237 237 236 233 228 226 224 223 223 221 221 221 216 213 211 205 202 201 201 203 206 205 202 200 198 197 195 195 195 194 193 193 193 193 194 194 195 196
215 227 217 230 244 239 233 233 233 235 239 243 245 245 245 248 249 248 248 248 251 254 254 253 255 256 255 255 255 257 262 268 271 273 275 275 273 273 271 264 262 268 275 268 241 237 244 242 241 241 237 232 231 227 223 223 223 222 222 219 214 212 208 202 200 200 201 204 204 201 197 195 194 193 193 193 193 192 190 191 191 191 192 192 193 194
212 233 232 239 251 240 233 235 233 233 236 238 241 245 246 244 243 242 241 241 243 248 253 253 254 255 250 249 253 257 261 264 263 262 264 265 267 273 280 279 275 271 271 266 252 242 244 244 242 238 234 233 233 226 223 225 223 221 220 218 215 211 204 199 199 200 202 202 200 196 194 193 191 190 191 191 190 189 189 189 188 188 189 189 190 191
200 232 236 234 250 245 233 235 236 233 235 234 229 233 237 238 238 240 241 242 241 241 247 250 246 246 246 245 247 251 253 255 255 254 256 260 266 275 280 278 274 267 260 259 257 253 249 246 240 232 232 236 233 228 228 226 221 221 222 220 214 206 198 197 198 199 200 198 195 193 192 191 189 189 189 189 189 188 187 186 186 187 188 188 189 189
213 231 237 234 250 251 239 241 243 235 235 229 213 219 226 230 234 238 239 239 239 237 239 243 248 251 252 247 242 244 246 249 251 252 256 261 269 276 277 275 270 262 257 256 258 257 252 244 239 234 236 239 237 237 237 232 227 227 227 219 208 198 194 195 196 197 196 194 193 192 191 190 189 188 188 188 187 186 185 186 186 186 187 187 187 187
231 235 240 237 252 260 251 251 249 240 236 230 215 216 223 229 234 239 243 242 241 242 243 247 252 252 249 248 246 246 248 251 256 262 268 272 270 269 273 276 276 273 270 265 260 260 257 243 236 240 241 240 241 240 239 235 230 227 221 209 199 194 192 193 193 194 194 192 192 192 190 189 189 187 187 186 185 185 185 185 186 185 186 187 187 188
235 242 240 237 246 256 249 238 246 260 272 163 214 220 223 231 236 242 250 251 250 253 257 260 263 262 261 259 258 259 262 265 270 275 283 295 301 303 297 291 293 293 290 284 273 267 262 245 231 234 238 240 242 238 234 232 227 217 208 200 194 191 190 190 191 191 191 191 192 192 191 189 188 186 186 185 184 184 185 185 185 185 185 185 186 186
225 232 238 239 231 237 250 247 253 270 270 234 209 207 210 217 217 222 239 249 273 308 316 311 305 306 308 302 299 297 291 288 288 289 320 342 343 343 336 323 317 314 309 303 293 283 272 258 244 241 243 245 245 239 234 231 221 205 195 192 188 187 186 186 190 191 192 194 194 193 192 190 187 186 185 184 184 185 185 185 185 185 184 183 183 183
228 224 226 234 216 223 249 255 255 261 258 248 237 224 221 221 213 215 229 234 18 7 353 349 346 346 357 358 348 339 333 322 302 310 353 355 347 345 341 337 337 334 330 327 321 312 300 288 275 265 258 254 253 248 239 227 208 192 185 183 183 183 183 187 193 194 194 197 196 193 192 190 188 186 185 185 186 186 185 185 184 185 185 184 183 183
261 243 235 243 237 232 243 247 251 253 263 340 342 338 321 279 252 248 243 238 11 355 340 339 340 348 12 11 357 351 2 10 332 323 339 337 331 332 330 330 337 339 338 340 341 335 322 316 310 296 281 270 267 263 248 217 195 183 180 183 182 179 183 193 198 197 197 198 196 193 192 190 189 188 187 187 188 187 185 185 184 185 185 185 184 183
306 278 261 259 262 265 265 263 265 258 29 15 351 346 337 317 283 243 249 287 353 339 330 330 326 343 7 356 348 356 360 346 317 310 314 318 316 315 315 321 330 333 334 340 345 344 340 340 339 330 323 327 318 302 261 206 191 184 184 183 179 182 195 201 202 200 198 196 192 191 191 191 190 191 190 189 188 187 186 185 184 183 183 184 183 182
328 293 282 276 269 269 267 264 269 261 69 17 357 351 341 327 278 177 264 324 333 318 314 317 317 332 345 336 334 345 327 303 291 292 298 307 310 311 315 317 318 321 321 327 336 343 347 349 351 354 355 353 345 328 246 193 193 206 202 187 186 198 205 204 200 196 193 190 189 190 191 191 192 192 191 189 186 185 185 185 184 183 182 181 180 177
332 301 296 302 296 288 278 278 280 261 77 24 360 356 360 349 308 296 315 312 299 297 298 305 321 331 336 335 335 328 312 305 298 293 299 308 307 309 315 318 320 324 326 328 334 341 344 343 342 346 351 351 347 327 245 192 189 247 246 220 225 229 217 203 195 191 189 188 189 190 191 192 193 191 189 187 184 183 183 183 184 183 180 179 177 174
308 303 296 286 286 289 280 274 268 249 19 11 354 353 29 24 301 302 314 300 286 287 296 318 336 340 340 336 328 321 315 311 309 309 311 310 308 310 312 313 317 319 320 322 325 327 328 328 326 324 324 327 323 296 242 203 196 202 208 222 240 250 231 206 197 192 190 188 188 190 191 191 190 189 187 186 184 182 180 180 181 181 180 178 174 170
258 263 273 272 282 293 273 268 289 306 329 355 6 347 337 325 294 295 303 300 304 320 338 339 335 333 332 325 318 318 316 311 310 314 314 310 311 311 308 308 311 311 312 313 311 312 315 313 305 302 298 293 283 261 230 212 206 204 213 224 227 223 213 206 199 192 191 190 189 190 191 189 188 188 186 185 184 181 178 177 177 177 178 178 174 169
273 279 290 295 301 290 264 279 301 307 312 335 19 319 309 317 335 325 309 310 324 338 347 336 322 321 322 314 310 312 312 310 311 313 312 310 310 309 309 310 310 308 308 308 308 310 312 307 299 295 289 278 267 251 236 225 210 202 223 232 225 215 208 202 196 192 191 190 190 190 189 187 186 187 186 185 183 180 177 175 174 174 177 177 174 169
304 314 313 311 309 303 290 286 298 312 317 320 325 326 325 346 11 357 350 352 337 329 332 326 317 318 316 310 310 310 309 312 313 309 308 308 306 307 310 310 309 310 310 308 309 312 311 307 301 293 286 281 273 256 242 234 220 217 233 234 221 213 208 199 193 191 190 189 190 189 185 184 184 185 186 185 185 183 179 175 173 173 174 175 174 171
294 303 301 296 300 302 296 294 309 316 311 309 315 342 27 16 1 1 9 352 324 315 318 314 307 307 307 306 308 305 305 309 309 306 307 307 304 306 308 307 307 309 308 309 310 309 307 305 300 290 283 284 280 268 253 243 237 238 242 236 220 212 206 196 190 189 189 189 189 187 186 185 184 183 183 184 185 184 181 177 175 173 172 173 173 171
291 312 309 290 282 283 286 296 302 295 286 292 308 348 34 2 344 342 334 321 313 309 311 311 308 308 308 307 305 303 303 303 302 301 304 305 303 305 306 304 304 305 304 306 307 305 303 298 291 287 281 277 279 274 261 251 250 249 244 236 223 210 200 195 193 191 189 188 186 187 188 188 186 183 183 184 185 184 181 179 177 176 177 178 175 172
277 291 284 278 281 284 284 290 299 299 295 296 309 6 14 333 323 324 316 315 319 320 322 323 318 314 312 310 310 309 304 301 303 307 307 306 307 308 307 306 306 306 306 306 305 303 300 292 286 284 278 275 276 273 262 255 255 252 244 234 223 208 198 196 195 192 188 186 185 187 189 189 188 187 184 184 186 187 186 184 181 178 178 180 179 177
261 265 267 275 283 279 277 279 295 310 300 295 303 3 351 319 315 322 320 319 325 329 332 327 316 311 309 308 311 314 310 307 309 310 309 307 308 311 313 313 312 310 309 311 310 305 299 293 289 284 279 277 277 273 265 260 259 254 244 233 219 208 200 194 191 191 189 187 187 188 188 188 188 187 185 183 183 185 185 185 184 181 177 178 180 182
243 248 255 260 258 264 275 280 169 197 272 281 298 328 321 314 331 333 323 321 324 325 326 321 312 309 308 306 309 313 311 308 308 310 310 309 309 311 315 315 314 313 312 312 312 307 302 299 295 287 281 280 279 275 269 265 261 255 245 233 220 211 203 194 188 190 191 191 192 191 188 187 186 185 184 183 181 178 174 172 177 180 178 176 177 179